• En España
  • Lista de países
  • Para 7 días
  • Temperatura del agua
  • Mapa Satelital
  • El tiempo en el mapa
  • Informadores
  • user-avatar
    Iniciar sesión

    Tiempo cada hora Zashizheme

    Hoy, 21 Agosto, Martes

    Tiempo Temperatura Precipitaciones Viento Presión Humedad
    00:00 +16°C° 0,1 mm 2 mps 743 mmHg 94%
    01:00 +16°C° 0,1 mm 2 mps 743 mmHg 95%
    02:00 +16°C° 0,1 mm 2 mps 743 mmHg 95%
    03:00 +16°C° 0 mm 2 mps 743 mmHg 96%
    04:00 +16°C° 0,2 mm 2 mps 743 mmHg 96%
    05:00 +17°C° 0,2 mm 2 mps 743 mmHg 95%
    06:00 +17°C° 0,2 mm 2 mps 743 mmHg 95%
    07:00 +18°C° 0,2 mm 2 mps 743 mmHg 90%
    08:00 +19°C° 0,2 mm 3 mps 742 mmHg 86%
    09:00 +20°C° 0,2 mm 3 mps 742 mmHg 81%
    10:00 +21°C° 0,4 mm 3 mps 742 mmHg 77%
    11:00 +22°C° 0,4 mm 4 mps 742 mmHg 74%
    12:00 +23°C° 0,4 mm 4 mps 742 mmHg 70%
    13:00 +23°C° 0,2 mm 4 mps 741 mmHg 68%
    14:00 +25°C° 0,2 mm 4 mps 741 mmHg 65%
    15:00 +26°C° 0,2 mm 4 mps 740 mmHg 63%
    16:00 +25°C° 0,1 mm 4 mps 740 mmHg 67%
    17:00 +23°C° 0,1 mm 4 mps 739 mmHg 70%
    18:00 +22°C° 0,1 mm 4 mps 739 mmHg 74%
    19:00 +22°C° 0,3 mm 4 mps 738 mmHg 76%
    20:00 +21°C° 0,3 mm 4 mps 738 mmHg 78%
    21:00 +20°C° 0,3 mm 5 mps 738 mmHg 80%
    22:00 +19°C° 0,3 mm 4 mps 737 mmHg 82%
    23:00 +19°C° 0,3 mm 4 mps 737 mmHg 83%

    Mañana, 22 Agosto, Miércoles

    Tiempo Temperatura Precipitaciones Viento Presión Humedad
    00:00 +19°C° 0,3 mm 4 mps 737 mmHg 85%
    01:00 +18°C° 0,6 mm 4 mps 737 mmHg 87%
    02:00 +18°C° 0,6 mm 4 mps 737 mmHg 89%
    03:00 +18°C° 0,6 mm 4 mps 737 mmHg 91%
    04:00 +17°C° 1 mm 4 mps 737 mmHg 92%
    05:00 +15°C° 1 mm 4 mps 737 mmHg 92%
    06:00 +15°C° 1 mm 4 mps 737 mmHg 93%
    07:00 +14°C° 0,2 mm 4 mps 737 mmHg 89%
    08:00 +14°C° 0,2 mm 4 mps 737 mmHg 85%
    09:00 +14°C° 0,2 mm 4 mps 738 mmHg 80%
    10:00 +15°C° 0 mm 4 mps 738 mmHg 74%
    11:00 +16°C° 0 mm 5 mps 738 mmHg 67%
    12:00 +17°C° 0 mm 5 mps 739 mmHg 60%
    13:00 +19°C° 0 mm 5 mps 739 mmHg 59%
    14:00 +19°C° 0 mm 5 mps 739 mmHg 58%
    15:00 +19°C° 0 mm 5 mps 739 mmHg 57%
    16:00 +17°C° 0,1 mm 5 mps 739 mmHg 63%
    17:00 +17°C° 0,1 mm 4 mps 740 mmHg 68%
    18:00 +15°C° 0,1 mm 4 mps 740 mmHg 74%
    19:00 +14°C° 0 mm 4 mps 740 mmHg 77%
    20:00 +13°C° 0 mm 4 mps 741 mmHg 79%
    21:00 +11°C° 0 mm 4 mps 741 mmHg 82%
    22:00 +11°C° 0 mm 4 mps 742 mmHg 84%
    23:00 +10°C° 0 mm 4 mps 742 mmHg 85%

    Pasado mañana, 23 Agosto, Jueves

    Tiempo Temperatura Precipitaciones Viento Presión Humedad
    00:00 +10°C° 0 mm 4 mps 743 mmHg 87%
    01:00 +8°C° 0 mm 4 mps 743 mmHg 88%
    02:00 +8°C° 0 mm 4 mps 743 mmHg 89%
    03:00 +7°C° 0 mm 4 mps 744 mmHg 90%
    04:00 +7°C° 0 mm 4 mps 744 mmHg 89%
    05:00 +7°C° 0 mm 5 mps 745 mmHg 87%
    06:00 +7°C° 0 mm 5 mps 745 mmHg 85%
    07:00 +9°C° 0 mm 5 mps 746 mmHg 78%
    08:00 +10°C° 0 mm 6 mps 746 mmHg 70%
    09:00 +11°C° 0 mm 6 mps 746 mmHg 63%
    10:00 +13°C° 0 mm 6 mps 746 mmHg 60%
    11:00 +14°C° 0 mm 6 mps 746 mmHg 58%
    12:00 +15°C° 0 mm 7 mps 746 mmHg 56%
    13:00 +15°C° 0 mm 7 mps 746 mmHg 55%
    14:00 +15°C° 0 mm 6 mps 747 mmHg 55%
    15:00 +16°C° 0 mm 6 mps 747 mmHg 55%
    16:00 +15°C° 0 mm 5 mps 747 mmHg 59%
    17:00 +14°C° 0 mm 4 mps 747 mmHg 62%
    18:00 +14°C° 0 mm 3 mps 747 mmHg 66%
    19:00 +13°C° 0 mm 3 mps 747 mmHg 69%
    20:00 +12°C° 0 mm 3 mps 747 mmHg 72%
    21:00 +10°C° 0 mm 3 mps 747 mmHg 75%
    22:00 +10°C° 0 mm 3 mps 748 mmHg 75%
    23:00 +10°C° 0 mm 3 mps 748 mmHg 76%

    24 Agosto, Viernes

    Tiempo Temperatura Precipitaciones Viento Presión Humedad
    00:00 +10°C° 0 mm 3 mps 748 mmHg 76%
    01:00 +10°C° 0,1 mm 3 mps 748 mmHg 78%
    02:00 +10°C° 0,1 mm 3 mps 748 mmHg 79%
    03:00 +10°C° 0,1 mm 3 mps 748 mmHg 80%
    04:00 +10°C° 0,4 mm 3 mps 748 mmHg 84%
    05:00 +10°C° 0,4 mm 3 mps 748 mmHg 88%
    06:00 +10°C° 0,4 mm 3 mps 748 mmHg 92%
    07:00 +11°C° 0,1 mm 3 mps 748 mmHg 90%
    08:00 +12°C° 0,1 mm 3 mps 748 mmHg 88%
    09:00 +13°C° 0,1 mm 3 mps 748 mmHg 86%
    10:00 +14°C° 0 mm 4 mps 748 mmHg 85%
    11:00 +15°C° 0 mm 4 mps 748 mmHg 83%
    12:00 +15°C° 0 mm 4 mps 748 mmHg 82%
    13:00 +17°C° 0 mm 4 mps 748 mmHg 80%
    14:00 +18°C° 0 mm 4 mps 748 mmHg 78%
    15:00 +18°C° 0 mm 4 mps 748 mmHg 76%
    16:00 +18°C° 0 mm 3 mps 748 mmHg 79%
    17:00 +18°C° 0 mm 3 mps 748 mmHg 81%
    18:00 +17°C° 0 mm 2 mps 748 mmHg 84%
    19:00 +16°C° 0 mm 2 mps 748 mmHg 86%
    20:00 +15°C° 0 mm 1 mps 748 mmHg 89%
    21:00 +14°C° 0 mm 1 mps 748 mmHg 92%
    22:00 +14°C° 0 mm 1 mps 749 mmHg 92%
    23:00 +14°C° 0 mm 1 mps 749 mmHg 92%

    25 Agosto, Sábado

    Tiempo Temperatura Precipitaciones Viento Presión Humedad
    00:00 +13°C° 0 mm 1 mps 749 mmHg 93%
    01:00 +13°C° 0 mm 1 mps 749 mmHg 93%
    02:00 +13°C° 0 mm 1 mps 749 mmHg 93%
    03:00 +13°C° 0 mm 1 mps 750 mmHg 93%
    04:00 +13°C° 0 mm 1 mps 750 mmHg 92%
    05:00 +14°C° 0 mm 1 mps 750 mmHg 92%
    06:00 +14°C° 0 mm 1 mps 750 mmHg 91%
    07:00 +16°C° 0 mm 1 mps 750 mmHg 85%
    08:00 +19°C° 0 mm 1 mps 751 mmHg 78%
    09:00 +21°C° 0 mm 1 mps 751 mmHg 72%
    10:00 +22°C° 0 mm 1 mps 751 mmHg 69%
    11:00 +23°C° 0 mm 1 mps 751 mmHg 65%
    12:00 +24°C° 0 mm 2 mps 751 mmHg 61%
    13:00 +24°C° 0 mm 2 mps 750 mmHg 60%
    14:00 +25°C° 0 mm 2 mps 750 mmHg 59%
    15:00 +25°C° 0 mm 2 mps 750 mmHg 58%
    16:00 +24°C° 0 mm 2 mps 750 mmHg 63%
    17:00 +23°C° 0 mm 1 mps 750 mmHg 68%
    18:00 +22°C° 0 mm 1 mps 750 mmHg 72%
    19:00 +20°C° 0 mm 1 mps 750 mmHg 76%
    20:00 +19°C° 0 mm 1 mps 750 mmHg 79%
    21:00 +18°C° 0 mm 1 mps 750 mmHg 83%
    22:00 +16°C° 0 mm 1 mps 750 mmHg 84%
    23:00 +16°C° 0 mm 1 mps 750 mmHg 85%

    26 Agosto, Domingo

    Tiempo Temperatura Precipitaciones Viento Presión Humedad
    00:00 +15°C° 0 mm 1 mps 751 mmHg 85%
    01:00 +15°C° 0 mm 1 mps 751 mmHg 86%
    02:00 +15°C° 0 mm 1 mps 751 mmHg 87%
    03:00 +14°C° 0 mm 1 mps 751 mmHg 87%
    04:00 +15°C° 0 mm 1 mps 751 mmHg 86%
    05:00 +15°C° 0 mm 1 mps 751 mmHg 85%
    06:00 +16°C° 0 mm 1 mps 751 mmHg 83%
    07:00 +16°C° 0 mm 0 mps 752 mmHg 77%
    08:00 +18°C° 0 mm 0 mps 752 mmHg 70%
    09:00 +20°C° 0 mm 0 mps 752 mmHg 63%
    10:00 +23°C° 0 mm 1 mps 752 mmHg 59%
    11:00 +24°C° 0 mm 1 mps 752 mmHg 55%
    12:00 +25°C° 0 mm 1 mps 752 mmHg 51%
    13:00 +26°C° 0 mm 1 mps 751 mmHg 50%
    14:00 +26°C° 0 mm 1 mps 751 mmHg 50%
    15:00 +26°C° 0 mm 1 mps 751 mmHg 49%
    16:00 +25°C° 0 mm 1 mps 751 mmHg 55%
    17:00 +23°C° 0 mm 1 mps 751 mmHg 60%
    18:00 +22°C° 0 mm 1 mps 751 mmHg 65%
    19:00 +21°C° 0 mm 1 mps 751 mmHg 68%
    20:00 +20°C° 0 mm 1 mps 751 mmHg 71%
    21:00 +18°C° 0 mm 1 mps 751 mmHg 73%
    22:00 +18°C° 0 mm 1 mps 751 mmHg 75%
    23:00 +16°C° 0 mm 1 mps 751 mmHg 76%
    Mostrar más